Content
SEND FEEDBACK

Daily
Averages
Monthly
Summary
United States of America

ASATDAS, GUAM


Home > North America > United States > Guam
Elevation: 612 feet     Latitude: 13 35N     Longitude: 144 56E

WEATHER
 
SELECT A DAY
Number of Records: 208,892;   Date Range: 1/1/95 - 7/22/14
 
SHARE

PRINT THIS DATA

[ ← Previous Day ]
WEATHER ALMANAC - MARCH 20, 2014
[ Next Day → ]
[ °C ]   °F
Weather ElementAverageHighLow
Temperature81.1 °F84.9 °F (10:54 am)75.9 °F (4:54 am)
Dewpoint72.3 °F75 °F (1:54 am)70 °F (9:54 pm)
Humidity74.8 %90 % (1:54 am)65 % (10:54 am)
Barometer29.84 in29.89 in (8:54 am)29.78 in (3:54 pm)
Wind Speed12.4 mph17.3 mph (12:38 pm)
Wind Gust25.3 mph (9:54 am)
Weather ElementAverage
Visibility10 mi
Wind DirectionENE (74.8 °)

Weather ElementTotal
Precipitation0.08 in
Cooling Degree Days15.4 (Base 65)
Growing Degree Days30.4 (Base 50)
Averaged from 25 records on March 20, 2014
WEATHER CONDITIONS BREAKOUT
WIND DIRECTION BREAKOUT
WEATHER BY HOUR - MARCH 20, 2014
[ °C ]   °F
Local TimeTemperatureDewpointHumidityBarometerVisibilityWind DirectionWind SpeedGust SpeedPrecipitationEventsConditions
1:54 AM78.1 °F75.0 °F90 %29.86 in10.0 miNE (50°)8.1 mph0.08 inOvercast
2:54 AM78.1 °F75.0 °F90 %29.84 in10.0 miENE (60°)10.4 mphOvercast
3:54 AM77.0 °F73.9 °F90 %29.84 in10.0 miNE (50°)10.4 mphPartly Cloudy
4:54 AM75.9 °F72.0 °F87 %29.84 in10.0 miNE (50°)11.5 mphClear
5:54 AM75.9 °F72.0 °F87 %29.85 in10.0 miENE (60°)15.0 mphScattered Clouds
6:54 AM78.1 °F71.1 °F79 %29.86 in10.0 miEast (80°)10.4 mphOvercast
7:54 AM80.1 °F72.0 °F76 %29.87 in10.0 miEast (80°)9.2 mphOvercast
8:54 AM82.9 °F72.0 °F69 %29.89 in10.0 miEast (80°)10.4 mphMostly Cloudy
9:54 AM84.0 °F72.0 °F67 %29.89 in10.0 miEast (80°)12.7 mph25.3 mphPartly Cloudy
10:54 AM84.9 °F72.0 °F65 %29.88 in10.0 miEast (80°)13.8 mphClear
11:54 AM84.9 °F73.0 °F67 %29.85 in10.0 miEast (90°)15.0 mph19.6 mphScattered Clouds
12:21 PM84.2 °F73.4 °F70 %29.86 in10.0 miEast (90°)16.1 mph25.3 mphMostly Cloudy
12:38 PM82.4 °F73.4 °F74 %29.85 in9.0 miEast (80°)17.3 mph25.3 mph0.00 inRainLight Rain
12:54 PM82.9 °F73.0 °F72 %29.83 in10.0 miEast (90°)16.1 mph24.2 mph0.00 inOvercast
1:54 PM84.9 °F72.0 °F65 %29.80 in10.0 miEast (80°)16.1 mphPartly Cloudy
2:54 PM84.9 °F73.0 °F67 %29.79 in10.0 miEast (80°)15.0 mph23.0 mphPartly Cloudy
3:54 PM84.0 °F72.0 °F67 %29.78 in10.0 miEast (90°)17.3 mphPartly Cloudy
4:54 PM84.0 °F72.0 °F67 %29.78 in10.0 miENE (70°)13.8 mph24.2 mphPartly Cloudy
5:54 PM82.0 °F71.1 °F69 %29.79 in10.0 miEast (80°)13.8 mph21.9 mphClear
6:54 PM80.1 °F73.0 °F79 %29.81 in10.0 miEast (80°)9.2 mphPartly Cloudy
7:54 PM80.1 °F72.0 °F76 %29.82 in10.0 miENE (70°)8.1 mphScattered Clouds
8:54 PM80.1 °F71.1 °F74 %29.84 in10.0 miEast (80°)9.2 mphPartly Cloudy
9:54 PM80.1 °F70.0 °F71 %29.86 in10.0 miEast (80°)11.5 mphPartly Cloudy
10:54 PM80.1 °F71.1 °F74 %29.85 in10.0 miENE (70°)9.2 mphScattered Clouds
11:54 PM79.0 °F71.1 °F77 %29.84 in10.0 miENE (70°)9.2 mphClear
Hourly data recorded from PGUM, located miles away from Asatdas, Guam







STORIES FROM OUR PARTNERS